Other Public Products
Issued by NWS Grand Forks, ND

Home | Current Version | Previous Version | Graphics & Text | Print | Product List | Glossary On
Versions: 1 2 3 4 5 6 7 8 9 10 11 12 13 14 15 16 17 18 19 20 21 22 23 24 25 26 27 28 29 30 31 32 33 34 35 36 37 38 39 40 41 42 43 44 45 46 47 48 49 50
000
FPUS83 KFGF 251610
OPUFGF
PRAIRIE TO PINES WEATHER ROUNDUP
NATIONAL WEATHER SERVICE EASTERN NORTH DAKOTA/GRAND FORKS ND
1100 AM CDT WED MAY 25 2016

 **SATELLITE DATA USED TO AUGMENT SKY COVER AT AUTOMATED STATIONS**
 *****  WEATHER ACROSS EASTERN NORTH DAKOTA  *****

CITY           SKY/WX    TMP DP  RH WIND       PRES   REMARKS
GRAND FORKS    TSTM      66  58  75 E7        29.78F
GRAND FORKS AF CLOUDY    63  59  88 SE10      29.79S
GRAND CITY NWS   N/A     64 N/A N/A E2          N/A
BUXTON           N/A     67  63  89 E8          N/A
DEVILS LAKE    NOT AVBL
FARGO          CLOUDY    65  59  81 SE13      29.78R
WAHPETON ARPT  CLOUDY    63  59  88 E8        29.76F
$$

 *****  WEATHER ACROSS CENTRAL AND WESTERN NORTH DAKOTA  *****

CITY           SKY/WX    TMP DP  RH WIND       PRES   REMARKS
JAMESTOWN      NOT AVBL
BISMARCK       LGT RAIN  59  56  89 E5        29.81R
MINOT          CLOUDY    59  54  83 N10       29.81F
MINOT AFB      DRIZZLE   57  55  93 NE13      29.81F
GARRISON         N/A     59  55  87 E6        29.81S
WILLISTON      RAIN      52  49  89 NW15      29.84R FOG
DICKINSON      CLOUDY    58  51  78 W16       29.79F
HETTINGER      CLOUDY    61  49  64 S7        29.82F
$$

 *****  OTHER OBSERVATIONS NORTHEAST NORTH DAKOTA  *****

CITY           SKY/WX    TMP DP  RH WIND       PRES   REMARKS
WALHALLA       FAIR      70  54  56 E9        29.82F
LANGDON        FAIR      68  54  60 S7        29.85R
CAVALIER       FAIR      68  55  64 E9        29.81F
GRAFTON        FAIR      70  59  68 E9        29.80F
CANDO          NOT AVBL
FORT TOTTEN    NOT AVBL
ROLLA          FAIR      55  55 100 W6        29.88F
RUGBY          LGT RAIN  57  57 100 N8        29.83F
 ***** THE ABOVE OBSERVATIONS ARE NON NWS ARE NOT QUALITY
        CONTROLLED AND MAY MIS-REPORT RAIN FOR SNOW...
$$

 *****  OTHER OBSERVATIONS SOUTHEAST NORTH DAKOTA *****

CITY           SKY/WX    TMP DP  RH WIND       PRES   REMARKS
COOPERSTOWN    NOT AVBL
VALLEY CITY    LGT RAIN  59  59 100 W10       29.80F
OAKES            N/A    N/A N/A N/A MISG        N/A
GWINNER        PTSUNNY   64  63  94 NE8       29.75F
SHEYENNE NWR     N/A     63  61  93 E3        29.95S
BUFFALO          N/A     63  58  84 S13         N/A
WYNDMERE         N/A     64  63  94 E12         N/A
 ***** THE ABOVE OBSERVATIONS ARE NON NWS ARE NOT QUALITY
       CONTROLLED AND MAY MIS-REPORT RAIN FOR SNOW...
$$

  *****  WEATHER ACROSS NORTHERN MINNESOTA  *****

CITY           SKY/WX    TMP DP  RH WIND       PRES   REMARKS
FLAG ISLAND    CLOUDY    63  55  77 SE7       29.93S
WARROAD        CLOUDY    61  55  82 NE10      29.92R
ROSEAU         CLOUDY    68  57  68 E7        29.90R
HALLOCK        CLOUDY    73  54  49 E17G24    29.81F
THF RVR FALLS  CLOUDY    66  54  63 E16G24    29.84S
HALSTAD        NOT AVBL
FOSSTON        CLOUDY    63  55  77 SE10G17   29.83S
BAUDETTE       CLOUDY    59  54  83 E13       29.93F
WASKISH        CLOUDY    63  57  82 E10       29.91F
CROOKSTON      CLOUDY    66  61  82 E9        29.79F
$$
  *****  WEATHER ACROSS CENTRAL AND WEST MINNESOTA  *****

CITY           SKY/WX    TMP DP  RH WIND       PRES   REMARKS
BEMIDJI        CLOUDY    61  56  83 E12G18    29.87F
PARK RAPIDS    CLOUDY    66  55  67 SE13      29.86F
WADENA         CLOUDY    63  57  82 SE20      29.87S
DETROIT LAKES  PTSUNNY   64  57  77 SE16G23   29.83S
MOORHEAD       CLOUDY    64  59  82 SE14      29.78S
FERGUS FALLS   CLOUDY    64  57  77 SE18      29.74F
ELBOW LAKE     CLOUDY    63  58  84 SE17      29.77F
MORRIS MN      CLOUDY    64  59  82 SE23      29.75S
STAPLES        HVY RAIN  61  57  88 SE5       29.89R
WHEATON        CLOUDY    66  63  88 SE17      29.75F
$$
  *****  WEATHER ELSEWHERE ACROSS MINNESOTA  *****

CITY           SKY/WX    TMP DP  RH WIND       PRES   REMARKS
DULUTH         NOT AVBL
INTRNTL FALLS  NOT AVBL
ELY            CLOUDY    64  50  59 E12       30.01F
CLOQUET        FOG       48  46  93 E14G22    30.00S VSB 1/2
BRAINERD       CLOUDY    60  55  83 E7        29.91S
HIBBING        PTSUNNY   61  52  72 E12       29.97F
ALEXANDRIA     CLOUDY    62  59  90 E14       29.82F
SAINT CLOUD    RAIN      62  61  96 CALM      29.90F FOG
MINNEAPOLIS    LGT RAIN  69  64  84 E10       29.90F
$$

  *****  WEATHER ACROSS SOUTH DAKOTA  *****

CITY           SKY/WX    TMP DP  RH WIND       PRES   REMARKS
SIOUX FALLS    PTSUNNY   70  60  70 SW12G20   29.81R
BROOKINGS      NOT AVBL
WATERTOWN      CLOUDY    66  61  84 S16G29    29.74F
HURON          CLOUDY    67  60  78 W9        29.78R
SISSETON         N/A     65  61  87 S17       29.72F
ABERDEEN       CLOUDY    67  59  75 NE6       29.73F
MITCHELL       PTSUNNY   68  60  75 W7G23     29.80R
PIERRE         MOSUNNY   65  56  72 W15       29.78S
MOBRIDGE       CLOUDY    69  56  62 E7        29.75F
RAPID CITY     SUNNY     63  50  62 S6        29.84R
$$

  *****  SOME WEATHER IN NEARBY STATES *****

CITY           SKY/WX    TMP DP  RH WIND       PRES   REMARKS
GLASGOW MT     CLOUDY    55  45  68 SE7       29.87F
GREAT FALLS MT SUNNY     58  39  49 SW14      29.90S
CHEYENNE WY    CLOUDY    59  28  30 W15       30.01S
SCOTTSBLUFF NE SUNNY     64  44  48 W7        29.94S
OMAHA NE       PTSUNNY   69  62  78 S8        29.86F
DES MOINES IA  CLOUDY    71  65  81 S10       29.87F
DAVENPORT IA   CLOUDY    78  61  55 SE14      29.92F
CHICAGO IL     CLOUDY    78  65  63 S8        29.98F
EAU CLAIRE WI  CLOUDY    75  59  57 SE10      29.93S
LA CROSSE WI   CLOUDY    72  65  78 SE6       29.90F
$$

  *****  SOME NATIONAL WEATHER *****

CITY           SKY/WX    TMP DP  RH WIND       PRES   REMARKS
LA GUARDIA NY  MOSUNNY   83  50  31 W8        30.05F
RALEIGH NC     MOSUNNY   83  58  42 W6        30.22F
ATLANTA GA     MOSUNNY   82  53  36 S9        30.25F
NEW ORLEANS LA PTSUNNY   86  73  65 S13       30.14S HX  93
OKLAHOMA CITY  PTSUNNY   82  73  74 S22       29.89F
ALBUQUERQUE NM SUNNY     68  15  13 N6        30.15S
SALT LAKE CITY PTSUNNY   60  40  47 NW6       30.03R
LOS ANGELES CA PTSUNNY   61  51  70 W6        30.08R
BOISE ID       MOSUNNY   59  42  53 NW7       30.02R
SEATTLE WA     CLOUDY    54  50  86 SW9       30.14R
$$

*** WEATHER ACROSS MANITOBA...SASKATCHEWAN AND ONTARIO ***
                ***ONTARIO***

CITY           SKY/WX    TMP DP  RH WIND       PRES   REMARKS
GERALDTON      MOSUNNY   59  39  47 E12       30.14S
THUNDER BAY    CLOUDY    50  45  81 E14       30.13S
SIOUX LOOKOUT  NOT AVBL
TORONTO        PTSUNNY   79  55  44 W7        30.04R
BIG TROUT LK   CLOUDY    54  46  76 SE8       30.06F
PICKLE LAKE    PTSUNNY   61  48  63 S6        30.06R
DRYDEN         CLOUDY    59  54  82 SE8       30.02F
KENORA         PTSUNNY   63  55  77 E13       29.97F
$$
                *** MANITOBA***

CITY           SKY/WX    TMP DP  RH WIND       PRES   REMARKS
BRANDON        CLOUDY    63  54  72 E13       29.87R
DAUPHIN        CLOUDY    57  54  88 NE8       29.92F
ISLAND LAKE    NOT AVBL
PILOT MOUND    NOT AVBL
THE PAS        PTSUNNY   57  46  67 S6        29.96S
THOMPSON       MOSUNNY   57  39  51 VRB3      30.00F
WINNIPEG       CLOUDY    73  55  53 NE8       29.86F
LYNN LAKE      PTSUNNY   59  43  55 SW10      29.93F
CHURCHILL      LGT RAIN  36  34  93 SE15      30.05F
GILLAM         PTSUNNY   55  37  50 S8        30.05S
$$
                ***SASKATCHEWAN***

CITY           SKY/WX    TMP DP  RH WIND       PRES   REMARKS
ESTEVAN        LGT RAIN  54  50  87 NE6       29.84F
KINDERSLEY     CLOUDY    48  45  87 N5        29.90S
LLOYDMINSTER   MOSUNNY   55  45  67 CALM      29.91S
PRINCE ALBERT  CLOUDY    48  46  93 E6        29.94S DRFTDUST
REGINA         LGT RAIN  50  45  81 CALM      29.89F
YORKTON        SUNNY     63  52  67 N7        29.90F  C1F1C2F2C3F3C4F4C5F5C6F6C7F7C8F8C9F9CaFaCbFbCcFcCdFdCe!



USA.gov is the U.S. government's official web portal to all federal, state and local government web resources and services.